Flag for Poland Weather past 2 weeks in Gliwice, Poland

Now
77 °F

Sunny.


Feels Like: 77 °F
Forecast: 57 / 82 °F
Wind: 7 mph from North

Location: Katowice Airport

Current Time: Aug 1, 2015 at 4:40:48 PM

Latest Report: Aug 1, 2015 at 4:00 PM


Visibility: 10 mi

Pressure: 30.07 "Hg

Humidity: 26%

Dew point: 39 °F

Location of GliwiceLocation

Historic Weather in Gliwice — Graph

°F

Gliwice temperature yesterday

Maximum temperature yesterday: 70 °F (at 2:30 PM)
Minimum temperature yesterday: 41 °F (at 3:30 AM)
Average temperature yesterday: 57 °F

Past Weeks' High & Low Weather Summary

 TemperatureHumidityPressure
High91 °F (Jul 25, 1:00 PM)100% (Jul 19, 2:00 AM)30.12 "Hg (Jul 19, 2:00 AM)
Low41 °F (Jul 31, 3:30 AM)24% (Aug 1, 2:00 PM)29.65 "Hg (Jul 27, 6:30 PM)
Average69 °F63%29.91 "Hg
* Reported Jul 17 3:00 PM — Aug 1 3:30 PM, Gliwice, Weather by CustomWeather, © 2015

Note: Actual official high and low records may vary slightly from our data, if they occured in-between our weather recording intervals... More about our weather records

Advertising

Gliwice weather history for previous 24 hours

 ConditionsComfort  
Time TempWeatherWind HumidityBarometerVisibility
3:30 PM
Sat, Aug 1
77 °FPassing clouds.8 mph26%30.07 "HgN/A
3:00 PM77 °FPassing clouds.10 mph26%30.07 "HgN/A
2:30 PM77 °FSunny.8 mph24%30.07 "Hg10 mi
2:00 PM77 °FSunny.9 mph24%30.09 "Hg10 mi
1:30 PM73 °FSunny.8 mph29%30.09 "Hg10 mi
1:00 PM75 °FSunny.7 mph27%30.09 "Hg10 mi
12:30 PM75 °FPassing clouds.8 mph25%30.09 "HgN/A
12:00 PM73 °FSunny.6 mph33%30.09 "Hg10 mi
11:30 AM72 °FSunny.9 mph38%30.09 "Hg10 mi
11:00 AM72 °FSunny.7 mph38%30.12 "Hg10 mi
10:30 AM70 °FSunny.9 mph40%30.12 "Hg10 mi
10:00 AM68 °FSunny.9 mph40%30.12 "Hg10 mi
9:30 AM66 °FSunny.10 mph43%30.12 "Hg10 mi
9:00 AM64 °FSunny.12 mph49%30.12 "Hg10 mi
8:30 AM63 °FSunny.10 mph52%30.12 "Hg10 mi
8:00 AM59 °FSunny.8 mph59%30.12 "Hg10 mi
7:30 AM57 °FSunny.5 mph63%30.12 "Hg10 mi
7:00 AM52 °FSunny.7 mph72%30.12 "Hg10 mi
6:30 AM48 °FSunny.5 mph76%30.12 "Hg10 mi
6:00 AM45 °FClear.2 mph81%30.12 "Hg10 mi
5:30 AM41 °FClear.2 mph93%30.12 "Hg10 mi
5:00 AM41 °FClear.3 mph87%30.12 "Hg10 mi
4:30 AM43 °FClear.5 mph87%30.12 "Hg10 mi
4:00 AM43 °FClear.3 mph87%30.12 "Hg10 mi
3:30 AM46 °FClear.6 mph82%30.12 "Hg10 mi
3:00 AM46 °FPassing clouds.3 mph82%30.12 "HgN/A
2:30 AM46 °FClear.6 mph82%30.12 "Hg10 mi
2:00 AM45 °FClear.3 mph87%30.12 "Hg10 mi
1:30 AM45 °FClear.2 mph87%30.12 "Hg10 mi
1:00 AM46 °FClear.2 mph76%30.12 "Hg10 mi
12:30 AM48 °FPassing clouds.3 mph71%30.12 "HgN/A
12:00 AM50 °FClear.3 mph71%30.12 "Hg10 mi
11:30 PM
Fri, Jul 31
50 °FClear.5 mph71%30.12 "Hg10 mi
11:00 PM50 °FPassing clouds.3 mph71%30.09 "HgN/A
10:30 PM52 °FPassing clouds.3 mph67%30.09 "HgN/A
10:00 PM54 °FClear.2 mph63%30.09 "Hg10 mi
9:30 PM55 °FClear.2 mph59%30.09 "Hg10 mi
9:00 PM59 °FSunny.3 mph51%30.07 "Hg10 mi
8:30 PM63 °FPassing clouds.3 mph42%30.07 "HgN/A
8:00 PM64 °FSunny.5 mph40%30.07 "Hg10 mi
7:30 PM66 °FPassing clouds.7 mph37%30.07 "HgN/A
7:00 PM68 °FSunny.9 mph35%30.07 "Hg10 mi
6:30 PM68 °FPassing clouds.12 mph33%30.04 "HgN/A
6:00 PM70 °FSunny.12 mph33%30.04 "Hg10 mi
5:30 PM70 °FPassing clouds.8 mph31%30.04 "HgN/A
5:00 PM70 °FPassing clouds.12 mph33%30.04 "HgN/A
4:30 PM70 °FPassing clouds.12 mph33%30.04 "HgN/A
4:00 PM68 °FPassing clouds.9 mph35%30.04 "HgN/A
Weather by CustomWeather, © 2015

See weather overviewHow to use our weather pages